Stündliche Wetter Otradnyy

Heute, 14 April, Mittwoch

Zeit Temperatur Niederschläge Wind Luftdruck Luftfeuchtigkeit
00:00 +10°C° 0 mm 2 m/S 743 mmHg 69%
01:00 +9°C° 0 mm 2 m/S 742 mmHg 66%
02:00 +10°C° 0 mm 1 m/S 742 mmHg 63%
03:00 +9°C° 0 mm 1 m/S 742 mmHg 61%
04:00 +8°C° 0 mm 2 m/S 742 mmHg 67%
05:00 +8°C° 0 mm 2 m/S 742 mmHg 74%
06:00 +7°C° 0 mm 3 m/S 742 mmHg 80%
07:00 +8°C° 0 mm 4 m/S 742 mmHg 80%
08:00 +9°C° 0 mm 5 m/S 742 mmHg 79%
09:00 +10°C° 0 mm 6 m/S 743 mmHg 78%
10:00 +11°C° 0 mm 6 m/S 743 mmHg 74%
11:00 +13°C° 0 mm 6 m/S 742 mmHg 69%
12:00 +13°C° 0 mm 5 m/S 742 mmHg 65%
13:00 +13°C° 0 mm 5 m/S 742 mmHg 66%
14:00 +13°C° 0 mm 5 m/S 743 mmHg 66%
15:00 +13°C° 0 mm 4 m/S 743 mmHg 66%
16:00 +12°C° 0 mm 4 m/S 743 mmHg 69%
17:00 +12°C° 0 mm 4 m/S 742 mmHg 71%
18:00 +12°C° 0 mm 4 m/S 742 mmHg 74%
19:00 +11°C° 0 mm 3 m/S 743 mmHg 79%
20:00 +10°C° 0 mm 3 m/S 743 mmHg 84%
21:00 +9°C° 0 mm 3 m/S 743 mmHg 89%
22:00 +8°C° 0 mm 3 m/S 743 mmHg 90%
23:00 +8°C° 0 mm 3 m/S 743 mmHg 91%

Morgen, 15 April, Donnerstag

Zeit Temperatur Niederschläge Wind Luftdruck Luftfeuchtigkeit
00:00 +8°C° 0 mm 2 m/S 742 mmHg 93%
01:00 +7°C° 0 mm 3 m/S 742 mmHg 92%
02:00 +7°C° 0 mm 3 m/S 742 mmHg 92%
03:00 +7°C° 0 mm 3 m/S 742 mmHg 92%
04:00 +7°C° 0 mm 3 m/S 742 mmHg 92%
05:00 +7°C° 0 mm 3 m/S 742 mmHg 92%
06:00 +7°C° 0 mm 2 m/S 743 mmHg 92%
07:00 +9°C° 0 mm 3 m/S 743 mmHg 83%
08:00 +11°C° 0 mm 3 m/S 743 mmHg 74%
09:00 +13°C° 0 mm 4 m/S 743 mmHg 65%
10:00 +14°C° 0 mm 4 m/S 743 mmHg 58%
11:00 +17°C° 0 mm 4 m/S 742 mmHg 52%
12:00 +17°C° 0 mm 5 m/S 742 mmHg 45%
13:00 +18°C° 0 mm 4 m/S 742 mmHg 44%
14:00 +19°C° 0 mm 4 m/S 742 mmHg 42%
15:00 +19°C° 0 mm 4 m/S 742 mmHg 41%
16:00 +18°C° 0 mm 4 m/S 742 mmHg 46%
17:00 +17°C° 0 mm 3 m/S 742 mmHg 51%
18:00 +16°C° 0 mm 2 m/S 742 mmHg 56%
19:00 +15°C° 0 mm 2 m/S 742 mmHg 59%
20:00 +14°C° 0 mm 1 m/S 742 mmHg 61%
21:00 +13°C° 0 mm 1 m/S 743 mmHg 63%
22:00 +13°C° 0 mm 1 m/S 742 mmHg 64%
23:00 +12°C° 0 mm 1 m/S 742 mmHg 65%

übermorgen, 16 April, Freitag

Zeit Temperatur Niederschläge Wind Luftdruck Luftfeuchtigkeit
00:00 +12°C° 0 mm 1 m/S 742 mmHg 66%
01:00 +12°C° 0 mm 1 m/S 742 mmHg 67%
02:00 +11°C° 0 mm 1 m/S 742 mmHg 68%
03:00 +11°C° 0 mm 1 m/S 742 mmHg 69%
04:00 +11°C° 0 mm 1 m/S 742 mmHg 69%
05:00 +11°C° 0 mm 1 m/S 742 mmHg 69%
06:00 +10°C° 0 mm 0 m/S 742 mmHg 69%
07:00 +12°C° 0 mm 0 m/S 743 mmHg 64%
08:00 +15°C° 0 mm 1 m/S 743 mmHg 58%
09:00 +16°C° 0 mm 1 m/S 743 mmHg 52%
10:00 +19°C° 0 mm 1 m/S 743 mmHg 48%
11:00 +20°C° 0 mm 1 m/S 743 mmHg 44%
12:00 +20°C° 0 mm 2 m/S 743 mmHg 41%
13:00 +20°C° 0 mm 2 m/S 743 mmHg 40%
14:00 +21°C° 0 mm 3 m/S 742 mmHg 39%
15:00 +21°C° 0 mm 3 m/S 742 mmHg 38%
16:00 +21°C° 0 mm 3 m/S 742 mmHg 42%
17:00 +20°C° 0 mm 3 m/S 742 mmHg 46%
18:00 +19°C° 0 mm 3 m/S 742 mmHg 51%
19:00 +17°C° 1.7 mm 3 m/S 742 mmHg 64%
20:00 +14°C° 1.7 mm 3 m/S 743 mmHg 76%
21:00 +12°C° 1.7 mm 3 m/S 744 mmHg 89%
22:00 +12°C° 0.5 mm 3 m/S 744 mmHg 91%
23:00 +11°C° 0.5 mm 3 m/S 744 mmHg 92%

17 April, Samstag

Zeit Temperatur Niederschläge Wind Luftdruck Luftfeuchtigkeit
00:00 +11°C° 0.5 mm 3 m/S 744 mmHg 94%
01:00 +10°C° 0 mm 3 m/S 744 mmHg 94%
02:00 +10°C° 0 mm 3 m/S 744 mmHg 95%
03:00 +9°C° 0 mm 3 m/S 744 mmHg 96%
04:00 +8°C° 0.8 mm 4 m/S 744 mmHg 95%
05:00 +8°C° 0.8 mm 4 m/S 745 mmHg 94%
06:00 +8°C° 0.8 mm 5 m/S 745 mmHg 94%
07:00 +8°C° 1.8 mm 5 m/S 745 mmHg 92%
08:00 +10°C° 1.8 mm 4 m/S 746 mmHg 91%
09:00 +10°C° 1.8 mm 3 m/S 746 mmHg 90%
10:00 +10°C° 0.4 mm 3 m/S 746 mmHg 84%
11:00 +12°C° 0.4 mm 2 m/S 746 mmHg 79%
12:00 +13°C° 0.4 mm 2 m/S 746 mmHg 73%
13:00 +13°C° 0 mm 2 m/S 746 mmHg 69%
14:00 +14°C° 0 mm 2 m/S 746 mmHg 66%
15:00 +14°C° 0 mm 2 m/S 746 mmHg 62%
16:00 +13°C° 0 mm 3 m/S 746 mmHg 68%
17:00 +12°C° 0 mm 3 m/S 746 mmHg 74%
18:00 +11°C° 0 mm 4 m/S 746 mmHg 80%
19:00 +11°C° 0 mm 3 m/S 746 mmHg 83%
20:00 +10°C° 0 mm 3 m/S 746 mmHg 85%
21:00 +9°C° 0 mm 3 m/S 746 mmHg 87%
22:00 +9°C° 0 mm 2 m/S 746 mmHg 86%
23:00 +9°C° 0 mm 2 m/S 746 mmHg 84%

18 April, Sonntag

Zeit Temperatur Niederschläge Wind Luftdruck Luftfeuchtigkeit
00:00 +10°C° 0 mm 1 m/S 745 mmHg 83%
01:00 +9°C° 0 mm 1 m/S 745 mmHg 83%
02:00 +9°C° 0 mm 1 m/S 745 mmHg 83%
03:00 +9°C° 0 mm 1 m/S 745 mmHg 84%
04:00 +9°C° 0 mm 1 m/S 745 mmHg 83%
05:00 +9°C° 0 mm 1 m/S 745 mmHg 83%
06:00 +8°C° 0 mm 2 m/S 745 mmHg 83%
07:00 +9°C° 0 mm 2 m/S 745 mmHg 82%
08:00 +10°C° 0 mm 2 m/S 745 mmHg 81%
09:00 +10°C° 0 mm 3 m/S 745 mmHg 81%
10:00 +11°C° 0.1 mm 3 m/S 744 mmHg 78%
11:00 +12°C° 0.1 mm 4 m/S 744 mmHg 76%
12:00 +13°C° 0.1 mm 4 m/S 744 mmHg 73%
13:00 +13°C° 0 mm 4 m/S 744 mmHg 75%
14:00 +12°C° 0 mm 4 m/S 744 mmHg 77%
15:00 +12°C° 0 mm 4 m/S 743 mmHg 78%
16:00 +12°C° 0 mm 4 m/S 743 mmHg 79%
17:00 +12°C° 0 mm 3 m/S 744 mmHg 80%
18:00 +11°C° 0 mm 3 m/S 744 mmHg 82%
19:00 +11°C° 0.9 mm 3 m/S 743 mmHg 85%
20:00 +10°C° 0.9 mm 4 m/S 743 mmHg 88%
21:00 +10°C° 0.9 mm 4 m/S 743 mmHg 91%
22:00 +10°C° 0.2 mm 3 m/S 743 mmHg 91%
23:00 +10°C° 0.2 mm 3 m/S 743 mmHg 91%

19 April, Montag

Zeit Temperatur Niederschläge Wind Luftdruck Luftfeuchtigkeit
00:00 +10°C° 0.2 mm 2 m/S 743 mmHg 92%
01:00 +10°C° 0.1 mm 2 m/S 743 mmHg 92%
02:00 +10°C° 0.1 mm 2 m/S 743 mmHg 93%
03:00 +10°C° 0.1 mm 2 m/S 743 mmHg 93%
04:00 +10°C° 0 mm 2 m/S 743 mmHg 93%
05:00 +10°C° 0 mm 2 m/S 743 mmHg 93%
06:00 +10°C° 0 mm 3 m/S 743 mmHg 93%
07:00 +11°C° 0 mm 3 m/S 743 mmHg 91%
08:00 +12°C° 0 mm 3 m/S 743 mmHg 88%
09:00 +12°C° 0 mm 3 m/S 743 mmHg 86%
10:00 +12°C° 0.6 mm 3 m/S 743 mmHg 89%
11:00 +12°C° 0.6 mm 3 m/S 743 mmHg 91%
12:00 +12°C° 0.6 mm 4 m/S 743 mmHg 93%
13:00 +12°C° 0.3 mm 4 m/S 743 mmHg 92%
14:00 +12°C° 0.3 mm 4 m/S 743 mmHg 91%
15:00 +12°C° 0.3 mm 4 m/S 743 mmHg 90%
16:00 +12°C° 0 mm 4 m/S 743 mmHg 88%
17:00 +12°C° 0 mm 3 m/S 743 mmHg 86%
18:00 +12°C° 0 mm 3 m/S 743 mmHg 84%
19:00 +12°C° 0.3 mm 2 m/S 743 mmHg 85%
20:00 +12°C° 0.3 mm 2 m/S 743 mmHg 87%
21:00 +10°C° 0.3 mm 2 m/S 743 mmHg 88%
22:00 +10°C° 0.6 mm 2 m/S 743 mmHg 89%
23:00 +10°C° 0.6 mm 2 m/S 742 mmHg 90%
Mehr zeigen

Wir brauchen deine Erlaubnis

Meteoprog und unser Service Anbieter werden persönliche Daten aufbewahren, so wie Cookies, Geräte Bezeichnung oder ähnliche Technologien von deinem Gerät und Prozess, so wie Persönliche Daten Inhalte und Werbungen, genauso wie social Media und den Verkehr zu analysieren.

  • Aufbewahrung und/oder Zugang zu deiner Geräte Informationen.

    Cookies, Geräte Bezeichnung oder andere Informationen, können aufbewahrt oder Zugang zu deinem Gerät erhalten, für den Grund, der oben angegeben wird.

  • Personalisierte Werbung und Inhalte, Messungen, Einblick in das Publikum und Produkt Entwicklung.

    Werbungen und Inhalte können personalisiert werden, basierend auf ein Profil. Mehr Daten können besser personalisierte Werbungen und Inhalte hinzufügen. Werbung und Inhalte können gezeigt und gemessen werden. Einblicke über das Publikum, welche die Werbung gesehen haben und den Inhalt, können abgeleitet werden. So wie Daten können genutzt werden, um es zu verbessern oder die Benutzer Erfahrung zu verbessern das System und die Software.

Wenn du “Ich stimme zu” klickst, erlaubst du uns, die Cookies zu benutzen die Geräte Bezeichnung, den Web oder ähnliche Technologien zu benutzen. Deine Settings, können in deinem Gerät bei deinem Browser geändert werden.

Für den bestimmten Zweck, berechtigten Interessen beruhen darauf, mehr als auf den Inhalt. Du kannst mehr darüber in unseren Privaten und Cookie Politik lesen.